Regional Weather Roundup
Issued by NWS

Home | Current Version | Previous Version | Text Only | Print | Product List | Glossary Off
Versions: 1 2 3 4 5 6 7 8 9 10 11 12 13 14 15 16 17 18 19 20 21 22 23 24 25 26 27 28 29 30 31 32 33 34 35 36 37 38 39 40 41 42 43 44 45 46 47 48 49 50

000
ASUS43 KLOT 040900
RWRIL

ILLINOIS REGIONAL WEATHER ROUNDUP
NATIONAL WEATHER SERVICE CHICAGO/ROMEOVILLE IL
400 AM CDT MON MAY 04 2015

NOTE: "FAIR" INDICATES FEW OR NO CLOUDS BELOW 12,000 FEET WITH NO
SIGNIFICANT WEATHER AND/OR OBSTRUCTIONS TO VISIBILITY.

* THESE STATIONS ARE NOT UNDER NWS QUALITY CONTROL. THEY ALSO MAY NOT
  REPORT WEATHER SUCH AS PRECIPITATION OR FOG.

ILZ001-002-007-009-015-016-024-041000-
NORTHWEST ILLINOIS

CITY           SKY/WX    TMP DP  RH WIND       PRES   REMARKS
MOLINE         CLOUDY    60  57  89 SE8       29.94F
STERLING*      CLOUDY    59  55  88 S6        29.95S
$$

ILZ003-004-008-010-011-017-018-041000-
NORTH CENTRAL ILLINOIS

CITY           SKY/WX    TMP DP  RH WIND       PRES   REMARKS
ROCKFORD       CLOUDY    61  55  81 SW3       29.91F
FREEPORT*      CLOUDY    57  55  92 CALM      29.94R
$$

ILZ005-006-012>014-019>023-041000-
NORTHEAST ILLINOIS

CITY           SKY/WX    TMP DP  RH WIND       PRES   REMARKS
CHICAGO-OHARE  CLOUDY    62  52  69 W6        29.93S
CHICAGO-MIDWAY CLOUDY    66  51  58 SW12      29.94S
AURORA         CLOUDY    60  54  80 W6        29.95F
LANSING*       CLOUDY    66  45  46 SW15G23   29.96R
WAUKEGAN       NOT AVBL
DUPAGE AIRPORT CLOUDY    61  55  81 W3        29.93F
WHEELING       CLOUDY    64  53  67 W7        29.94S
NORTHERLY ISL    N/A     66  49  54 SW6         N/A
$$

LMZ740>746-041000-
SOUTHERN LAKE MICHIGAN

STATION/POSITION SKY/WX   TEMP    WIND        PRES    VSBY  WAVE
                          AIR SEA DIR/SP/G                  HT/PER
                          (F)     (DEG/KT/KT) (MB)    (MI)  (FT/S)
HARRISON CRIB              67     220/ 27/ 32   N/A
BURNHAM HARBOR             68     210/  8/ 14   N/A
CALUMET HARBOR             68     200/ 11/ 18   N/A
BURNS HARBOR               66     190/ 15/ 21 1013.9F
MICHIGAN CITY              67     170/ 18/ 24   N/A
MICHIGAN CITY 6N           62 50  210/ 14/ 17   N/A           1/ 2
ST. JOSEPH                 60 48  230/ 14/ 16   N/A           3/ 3
$$

ILZ025>027-034>036-040-047-049-050-058-095>099-041000-
WEST-CENTRAL ILLINOIS

CITY           SKY/WX    TMP DP  RH WIND       PRES   REMARKS
QUINCY         CLOUDY    67  54  63 SW12      29.95R
$$

ILZ028>032-037-038-041>044-048-051>054-059>061-041000-
CENTRAL ILLINOIS

CITY           SKY/WX    TMP DP  RH WIND       PRES   REMARKS
DECATUR        CLOUDY    67  51  56 S13       29.99F
PEORIA         LGT RAIN  68  53  58 N5        29.98R
SPRINGFIELD    CLOUDY    67  52  58 S13       29.97R
TAYLORVILLE    NOT AVBL
$$

ILZ033-039-045-046-055>057-062-063-041000-
EAST-CENTRAL ILLINOIS

CITY           SKY/WX    TMP DP  RH WIND       PRES   REMARKS
CHAMPAIGN      CLOUDY    63  51  65 S14       30.00F
MATTOON        LGT RAIN  62  50  64 S12       30.01F
$$

ILZ079-100>102-041000-
SOUTHWEST ILLINOIS

CITY           SKY/WX    TMP DP  RH WIND       PRES   REMARKS
BELLEVILLE     CLOUDY    63  53  70 SE2       30.01S
CAHOKIA*       CLOUDY    65  54  67 S6        30.00S
SPARTA*        MOCLDY    64  50  59 S7        30.05S
$$

ILZ064>066-069>071-074>076-080>082-084>086-088>090-092>094-041000-
SOUTH-CENTRAL ILLINOIS

CITY           SKY/WX    TMP DP  RH WIND       PRES   REMARKS
CARBONDALE     PTCLDY    58  51  78 SE5       30.06S
MT. VERNON     MOCLDY   N/A N/A N/A S7        30.06S
$$

ILZ067-068-072-073-078-083-087-091-041000-
SOUTHEAST ILLINOIS

CITY           SKY/WX    TMP DP  RH WIND       PRES   REMARKS
LAWRENCEVILLE  PTCLDY    58  50  75 S5        30.07S
ROBINSON*      PTCLDY    58  49  72 S7        30.07S
$$

ABBREVIATIONS USED IN REMARKS
   TC - TEMPERATURE IN CELSIUS
  WCI - WIND CHILL INDEX
   HX - HEAT INDEX
  VSB - VISIBILITY
$$



USA.gov is the U.S. government's official web portal to all federal, state and local government web resources and services.